レナード彗星

486P/Leonard (2025)

English version
Home page
Updated on July 27, 2024

---------------------------------------------------------------------

・ プロフィール

符号 486P/2024 H1
検出日 2024年4月18日
検出光度 20.7等
検出者 Erwin Schwab (Egelsbach, Germany)

・ 軌道要素

Epoch 2025 Mar. 26.0 TT = JDT 2460760.5                                         
T 2025 Apr. 3.84230 TT                                  Rudenko                 
q   2.3089320            (2000.0)            P               Q                  
n   0.14262232     Peri.   93.94574     +0.68115867     +0.73173327             
a   3.6280873      Node   219.02507     -0.68609322     +0.62639814             
e   0.3635953      Incl.    2.20949     -0.25553661     +0.26868531             
P   6.91                                                                        
>From 232 observations 2018 June 8-2024 May 29, mean residual 0".7.              

・ 光度変化

        m1 = 13.5 + 5 logΔ + 10.0 log r

---------------------------------------------------------------------

軌道要素はM.P.E.C. 2024-K145に掲載されたものです。
光度グラフはComet for Windowsで作成したものです。

---------------------------------------------------------------------

Copyright(C) Seiichi Yoshida (comet@aerith.net). All rights reserved.